Regional Weather Roundup
Issued by NWS Charleston, SC

Current Version | Previous Version | Text Only | Print | Product List | Glossary Off
Versions: 1 2 3 4 5 6 7 8 9 10 11 12 13 14 15 16 17 18 19 20 21 22 23 24 25 26 27 28 29 30 31 32 33 34 35 36 37 38 39 40 41 42 43 44 45 46 47 48 49 50

000
ASUS42 KCHS 040611
RWRCHS

REGIONAL WEATHER ROUNDUP
NATIONAL WEATHER SERVICE CHARLESTON SC
100 AM EST WED MAR 04 2015

NOTE: "FAIR" INDICATES FEW OR NO CLOUDS BELOW 12,000 FEET WITH NO
SIGNIFICANT WEATHER AND/OR OBSTRUCTIONS TO VISIBILITY.

NOT ALL STATIONS ARE QUALITY CONTROLLED BY THE NATIONAL
WEATHER SERVICE. USE DATA WITH CAUTION...ESPECIALLY
DEWPOINT OBSERVATIONS.

SCZ027-030-031-034>040-042>050-040700-
...SOUTHEAST SOUTH CAROLINA...

CITY           SKY/WX    TMP DP  RH WIND       PRES   REMARKS
N CHARLESTON   CLOUDY    55  54  94 E3        30.12F
6HR MIN TEMP:  52; 6HR MAX TEMP:  60;

WATERFRONT PRK   N/A     52 N/A N/A CALM        N/A
MOUNT PLEASANT FOG       52  52 100 CALM      30.12F VSB 1
PINOPOLIS      NOT AVBL
MONCKS CORNER  FOG       48  46  93 CALM      30.12F VSB 3/4
SUMMERVILLE    NOT AVBL
BEAUFORT MCAS  FOG       55  54  96 CALM      30.11F VSB 1/4
6HR MIN TEMP:  54; 6HR MAX TEMP:  59;

BEAUFORT ARPT  FOG       59  59 100 CALM      30.11F VSB 1/4
HILTON HEAD IS CLOUDY    63  63 100 S6        30.12F FOG
WALTERBORO     CLOUDY    54  52  94 CALM      30.12F
ALLENDALE      FOG       54  54 100 CALM      30.10F VSB 1/4

...SOUTHERN MIDLANDS AND PEE DEE...

CITY           SKY/WX    TMP DP  RH WIND       PRES   REMARKS
GEORGETOWN     NOT AVBL
KINGSTREE      NOT AVBL
ORANGEBURG     FOG       46  45  96 CALM      30.12S VSB 1/4
6HR MIN TEMP:  45; 6HR MAX TEMP:  46;

BARNWELL       FOG       50  50 100 CALM      30.12S VSB 1/4
AIKEN          FOG       46  46 100 CALM      30.13F VSB 1/4
MANNING        CLOUDY   N/A N/A N/A CALM      30.12F HAZE
COLUMBIA       FOG       45  44  97 SE5       30.10F VSB 1/4
6HR MIN TEMP:  44; 6HR MAX TEMP:  45;

SUMTER         FOG       43  41  93 S3        30.09F VSB 1/2
FLORENCE       FOG       42  41  96 S3        30.11F VSB 3/4
6HR MIN TEMP:  41; 6HR MAX TEMP:  42;

MYRTLE BEACH   CLOUDY    48  45  87 CALM      30.14F VSB 1/4
N MYRTLE BEACH FOG       47  46  97 S3        30.12F VSB 1/4
6HR MIN TEMP:  46; 6HR MAX TEMP:  48;


$$

GAZ063-065-086>088-099>101-113>116-118-119-134>141-150-040700-
...SOUTHEAST GEORGIA...

CITY           SKY/WX    TMP DP  RH WIND       PRES   REMARKS
SAVANNAH ARPT  CLOUDY    62  61  96 SW9       30.12S
6HR MIN TEMP:  57; 6HR MAX TEMP:  62;

HUNTER AAF     MOCLDY    63  63 100 SW3       30.10S
6HR MIN TEMP:  57; 6HR MAX TEMP:  63;

FORT STEWART   CLEAR     62  60  95 S2        30.10F
6HR MIN TEMP:  59; 6HR MAX TEMP:  67;

STATESBORO     CLEAR     61  61 100 CALM      30.10S FOG
SYLVANIA       CLEAR     56  56 100 CALM      30.11S FOG
CLAXTON        FAIR      63  63 100 CALM      30.11S

...CSRA...CENTRAL AND FAR SOUTHEAST GEORGIA...

CITY           SKY/WX    TMP DP  RH WIND       PRES   REMARKS
THOMSON        CLOUDY    52  52 100 CALM      30.14F VSB<1/4
AUGUSTA-BUSH   FOG       51  50  96 SE3       30.10F VSB 1/4
6HR MIN TEMP:  50; 6HR MAX TEMP:  53;

AUGUSTA-DANIEL FOG       52  51  97 SE3       30.10F VSB 1/4
SWAINSBORO     NOT AVBL
VIDALIA        PTCLDY    64  64 100 S5        30.10F
EASTMAN        FAIR      64  64 100 CALM      30.11F
HAZLEHURST     FAIR      67  66  95 S3        30.09F
ALMA           CLEAR     64  62  93 S3        30.11F
6HR MIN TEMP:  64; 6HR MAX TEMP:  73; 6HR PCP: TRACE;

WAYCROSS       PTCLDY    66  65  99 CALM      30.12S FOG
JESUP          CLOUDY    66  64  94 CALM      30.12F
BAXLEY         FAIR      66  64  94 CALM      30.10F FOG
BRUNSWICK      CLEAR     66  63  88 SW3       30.13F
SAINT SIMONS   CLEAR     63  62  97 S3        30.13S
6HR MIN TEMP:  59; 6HR MAX TEMP:  63;


$$

SCZ027-028-034-036>038-045-046-048>050-GAZ119-141-040700-
...LAKE AND SUPPLEMENTAL COASTAL OBSERVATIONS...

STATION/POSITION TIME  TEMP    WIND        PRES    WAVE   SWELL
                       AIR SEA DIR/SP/G            HT/PER HT/PER/DIR
                 (UTC) (F)     (DEG/KT/KT) (MB)    (FT/S) (FT/S/D)
UPR LAKE MARION  NOT AVBL
WINYAH BAY       NOT AVBL
LAKE MURRAY      0500   43     140/  3/  3 1019.3F
ACE BASIN NERRS  NOT AVBL
FORT PULASKI     0500   60 50  190/  5/  8 1020.6F
SAPELO ISLAND    0500   62     170/  6     1020.0F

$$

ANZ835-935-AMZ111-154-330-350-352-354-370-450-454-472-040700-
...C-MAN AND BUOY OBSERVATIONS...

STATION/POSITION TIME  TEMP    WIND        PRES    WAVE   SWELL
                       AIR SEA DIR/SP/G            HT/PER HT/PER/DIR
                 (UTC) (F)     (DEG/KT/KT) (MB)    (FT/S) (FT/S/D)
BUOY 41004       0550   69 68  190/  8/ 12 1019.6F   4/ 9   5/ 9
BUOY 41008       0550   59 54  180/ 14/ 14 1019.9F   3/ 9   3/110/ 9
FOLLY BEACH CMAN 0600   50      20/  3/  4 1020.2F
CAPERS NEARSHORE NOT AVBL
FRIPP NEARSHORE  0500   53      CALM  /  2 1020.1F


STATION/POSITION TIME  TEMP    WIND        PRES    WAVE   SWELL
                       AIR SEA DIR/SP/G            HT/PER HT/PER/DIR
                 (UTC) (F)     (DEG/KT/KT) (MB)    (FT/S) (FT/S/D)
5E ST. MARYS GA  0521      55                N/A     2/ 9
FRYING PAN BUOY  0550   65 61  210/  8/ 10 1020.1F   6/ 6   5/110/ 6
BUOY 41025       NOT AVBL
CAPE LOOKOUT NC  0500   60     200/ 11/ 14 1019.5F
BUOY 41002       0550   69 72  190/ 17/ 21 1023.8F   6/ 9   3/110/ 9
BUOY 41010       0520   74 75  150/ 14/ 16 1022.3F
ST AUGUSTINE FL  0600   60     180/  6/  7 1021.3F


$$



USA.gov is the U.S. government's official web portal to all federal, state and local government web resources and services.